Weather History for Payson, AZ

Change the Weather History Date:

Saturday, April 20, 2013

  Actual Average Record
Temperature  
Mean Temperature 54 °F -  
Max Temperature 71 °F 70 °F 80 °F (2012)
Min Temperature 37 °F 33 °F 37 °F (2013)
Degree Days  
Heating Degree Days 11    
Growing Degree Days 4 (Base 50)    
Moisture  
Dew Point 14 °F    
Average Humidity 20    
Maximum Humidity 36    
Minimum Humidity 8    
Precipitation  
Precipitation 0.00 in - - ()
Sea Level Pressure  
Sea Level Pressure 30.06 in    
Wind  
Wind Speed 6 mph (WNW)    
Max Wind Speed 25 mph    
Max Gust Speed 31 mph    
Visibility 10 miles    
Events      
Averages and records for this station are not official NWS values.
T = Trace of Precipitation, MM = Missing Value Source: NWS Daily Summary

Daily Weather History Graph

Daily Weather History Graph

Search for Another Location

Airport:

Trip Planner

Search our weather history database for the weather conditions in past years. The results will help you decide how hot, cold, wet, or windy it might be!

Date:

Astronomy

Apr. 20, 2013 Rise Set
Actual Time 5:47 AM MST 7:01 PM MST
Civil Twilight 5:21 AM MST 7:27 PM MST
Nautical Twilight 4:50 AM MST 7:58 PM MST
Astronomical Twilight 4:18 AM MST 8:30 PM MST
Moon 2:01 PM MST (4/20) 2:24 AM MST (4/20)
Length of Visible Light 14h 05m
Length of Day
13h 13m
Waxing Gibbous, 72% of the Moon is Illuminated
Apr 20
Waxing Gibbous
Apr 25
Full
May 2
Last Quarter
May 9
New
May 17
First Quarter

Hourly Weather History & Observations

Time (MST) Temp. Windchill Dew Point Humidity Pressure Visibility Wind Dir Wind Speed Gust Speed Precip Events Conditions
12:15 AM 44.6 °F 42.2 °F 14.0 °F 29% 30.09 in 10.0 mi North 4.6 mph - N/A   Clear
12:35 AM 42.8 °F - 14.0 °F 31% 30.09 in 10.0 mi Calm Calm - N/A   Clear
12:55 AM 41.0 °F 39.0 °F 14.0 °F 33% 30.09 in 10.0 mi WNW 3.5 mph - N/A   Clear
1:15 AM 44.6 °F 43.1 °F 12.2 °F 27% 30.08 in 10.0 mi NW 3.5 mph - N/A   Clear
1:35 AM 44.6 °F - 10.4 °F 25% 30.06 in 10.0 mi Calm Calm - N/A   Clear
1:55 AM 41.0 °F - 12.2 °F 31% 30.07 in 10.0 mi Calm Calm - N/A   Clear
2:15 AM 41.0 °F - 12.2 °F 31% 30.06 in 10.0 mi Calm Calm - N/A   Clear
2:35 AM 42.8 °F 40.1 °F 10.4 °F 27% 30.06 in 10.0 mi NW 4.6 mph - N/A   Clear
2:55 AM 41.0 °F 38.0 °F 12.2 °F 31% 30.06 in 10.0 mi NW 4.6 mph - N/A   Clear
3:15 AM 41.0 °F 39.0 °F 10.4 °F 29% 30.06 in 10.0 mi WNW 3.5 mph - N/A   Clear
3:35 AM 41.0 °F 39.0 °F 10.4 °F 29% 30.06 in 10.0 mi NW 3.5 mph - N/A   Clear
3:55 AM 39.2 °F 35.9 °F 10.4 °F 31% 30.05 in 10.0 mi WNW 4.6 mph - N/A   Clear
4:15 AM 39.2 °F 35.9 °F 10.4 °F 31% 30.05 in 10.0 mi NW 4.6 mph - N/A   Clear
4:35 AM 37.4 °F 33.8 °F 12.2 °F 36% 30.05 in 10.0 mi WNW 4.6 mph - N/A   Clear
4:55 AM 39.2 °F 37.0 °F 12.2 °F 33% 30.05 in 10.0 mi NW 3.5 mph - N/A   Clear
5:15 AM 39.2 °F 37.0 °F 10.4 °F 31% 30.05 in 10.0 mi WNW 3.5 mph - N/A   Clear
5:35 AM 37.4 °F 33.8 °F 12.2 °F 36% 30.06 in 10.0 mi WNW 4.6 mph - N/A   Clear
5:55 AM 39.2 °F 37.0 °F 12.2 °F 33% 30.06 in 10.0 mi WNW 3.5 mph - N/A   Clear
6:15 AM 41.0 °F - 12.2 °F 31% 30.06 in 10.0 mi Calm Calm - N/A   Clear
6:35 AM 42.8 °F 41.1 °F 12.2 °F 29% 30.06 in 10.0 mi WNW 3.5 mph - N/A   Clear
6:55 AM 44.6 °F - 15.8 °F 31% 30.07 in 10.0 mi Calm Calm - N/A   Clear
7:15 AM 46.4 °F - 17.6 °F 32% 30.08 in 10.0 mi Calm Calm - N/A   Clear
7:35 AM 51.8 °F - 17.6 °F 26% 30.08 in 10.0 mi Calm Calm - N/A   Clear
7:55 AM 55.4 °F - 17.6 °F 23% 30.09 in 10.0 mi NW 4.6 mph - N/A   Clear
8:15 AM 57.2 °F - 14.0 °F 18% 30.09 in 10.0 mi NW 5.8 mph - N/A   Clear
8:35 AM 57.2 °F - 12.2 °F 17% 30.09 in 10.0 mi NW 5.8 mph - N/A   Clear
8:55 AM 60.8 °F - 14.0 °F 16% 30.09 in 10.0 mi NNW 8.1 mph - N/A   Clear
9:15 AM 60.8 °F - 14.0 °F 16% 30.09 in 10.0 mi WSW 9.2 mph - N/A   Clear
9:35 AM 60.8 °F - 14.0 °F 16% 30.09 in 10.0 mi West 8.1 mph - N/A   Clear
9:55 AM 60.8 °F - 14.0 °F 16% 30.09 in 10.0 mi West 11.5 mph - N/A   Clear
10:15 AM 62.6 °F - 17.6 °F 18% 30.09 in 10.0 mi West 8.1 mph - N/A   Clear
10:35 AM 64.4 °F - 17.6 °F 16% 30.09 in 10.0 mi West 12.7 mph 17.3 mph N/A   Clear
10:55 AM 64.4 °F - 17.6 °F 16% 30.09 in 10.0 mi WNW 12.7 mph 20.7 mph N/A   Clear
11:15 AM 64.4 °F - 17.6 °F 16% 30.08 in 10.0 mi West 9.2 mph - N/A   Clear
11:35 AM 66.2 °F - 17.6 °F 15% 30.06 in 10.0 mi NNW 16.1 mph 24.2 mph N/A   Clear
11:55 AM 66.2 °F - 17.6 °F 15% 30.06 in 10.0 mi NW 20.7 mph 24.2 mph N/A   Clear
12:15 PM 66.2 °F - 15.8 °F 14% 30.05 in 10.0 mi WNW 18.4 mph 29.9 mph N/A   Clear
12:35 PM 68.0 °F - 12.2 °F 12% 30.06 in 10.0 mi NW 16.1 mph 26.5 mph N/A   Clear
12:55 PM 66.2 °F - 15.8 °F 14% 30.05 in 10.0 mi West 18.4 mph 25.3 mph N/A   Clear
1:15 PM 68.0 °F - 14.0 °F 12% 30.05 in 10.0 mi WNW 25.3 mph 31.1 mph N/A   Clear
1:35 PM 68.0 °F - 14.0 °F 12% 30.05 in 10.0 mi WNW 17.3 mph 24.2 mph N/A   Clear
1:55 PM 69.8 °F - 8.6 °F 9% 30.05 in 10.0 mi WNW 17.3 mph 27.6 mph N/A   Clear
2:15 PM 69.8 °F - 10.4 °F 10% 30.04 in 10.0 mi WNW 17.3 mph 27.6 mph N/A   Clear
2:35 PM 71.6 °F - 12.2 °F 10% 30.03 in 10.0 mi West 20.7 mph 25.3 mph N/A   Clear
2:55 PM 69.8 °F - 12.2 °F 11% 30.02 in 10.0 mi WNW 21.9 mph 29.9 mph N/A   Clear
3:15 PM 69.8 °F - 10.4 °F 10% 30.02 in 10.0 mi WNW 17.3 mph 23.0 mph N/A   Clear
3:35 PM 71.6 °F - 10.4 °F 9% 30.01 in 10.0 mi WNW 11.5 mph 23.0 mph N/A   Clear
3:55 PM 71.6 °F - 6.8 °F 8% 30.00 in 10.0 mi WNW 17.3 mph 23.0 mph N/A   Clear
4:15 PM 69.8 °F - 15.8 °F 13% 30.01 in 10.0 mi WSW 11.5 mph 18.4 mph N/A   Clear
4:35 PM 69.8 °F - 14.0 °F 12% 30.01 in 10.0 mi West 11.5 mph - N/A   Clear
4:55 PM 69.8 °F - 14.0 °F 12% 30.01 in 10.0 mi West 15.0 mph 20.7 mph N/A   Clear
5:15 PM 69.8 °F - 14.0 °F 12% 30.01 in 10.0 mi WSW 10.4 mph 17.3 mph N/A   Clear
5:35 PM 69.8 °F - 14.0 °F 12% 30.02 in 10.0 mi SW 11.5 mph 16.1 mph N/A   Clear
5:55 PM 69.8 °F - 14.0 °F 12% 30.02 in 10.0 mi SW 8.1 mph - N/A   Clear
6:15 PM 66.2 °F - 15.8 °F 14% 30.02 in 10.0 mi SSW 6.9 mph - N/A   Clear
6:35 PM 66.2 °F - 17.6 °F 15% 30.03 in 10.0 mi WSW 5.8 mph - N/A   Clear
6:55 PM 64.4 °F - 17.6 °F 16% 30.04 in 10.0 mi West 5.8 mph - N/A   Clear
7:15 PM 62.6 °F - 15.8 °F 16% 30.05 in 10.0 mi WSW 5.8 mph - N/A   Clear
7:35 PM 62.6 °F - 15.8 °F 16% 30.06 in 10.0 mi West 8.1 mph - N/A   Clear
7:55 PM 60.8 °F - 15.8 °F 17% 30.07 in 10.0 mi SW 4.6 mph - N/A   Clear
8:15 PM 60.8 °F - 14.0 °F 16% 30.08 in 10.0 mi SSW 4.6 mph - N/A   Clear
8:35 PM 60.8 °F - 14.0 °F 16% 30.09 in 10.0 mi SW 4.6 mph - N/A   Clear
8:55 PM 60.8 °F - 14.0 °F 16% 30.09 in 10.0 mi West 3.5 mph - N/A   Clear
9:15 PM 57.2 °F - 17.6 °F 21% 30.10 in 10.0 mi Calm Calm - N/A   Clear
9:35 PM 57.2 °F - 14.0 °F 18% 30.11 in 10.0 mi Calm Calm - N/A   Clear
9:55 PM 55.4 °F - 17.6 °F 23% 30.11 in 10.0 mi Calm Calm - N/A   Clear
10:15 PM 53.6 °F - 19.4 °F 26% 30.12 in 10.0 mi NW 4.6 mph - N/A   Clear
10:35 PM 51.8 °F - 17.6 °F 26% 30.12 in 10.0 mi Calm Calm - N/A   Clear
10:55 PM 51.8 °F - 19.4 °F 28% 30.12 in 10.0 mi NNW 6.9 mph - N/A   Clear
11:15 PM 51.8 °F - 17.6 °F 26% 30.12 in 10.0 mi NW 4.6 mph - N/A   Clear
11:35 PM 55.4 °F - 12.2 °F 18% 30.12 in 10.0 mi North 4.6 mph - N/A   Clear